﻿_id,日時,平均風速(m/s),平均風向,最大瞬間風速(m/s),最大風速時風向,気温(℃),湿度(%),10分間移動積算雨量(mm),1時間移動積算雨量(mm),日雨量(mm),累計雨量(mm)
1,2023-03-13T00:00:00,2,北,6.7,西南西,14.6,77.7,1.5,1.5,1.5,1.5
2,2023-03-13T00:01:00,2.2,北,6.7,西南西,14.5,78.2,1.5,1.5,0,1.5
3,2023-03-13T00:02:00,2.2,北,6.7,西南西,14.5,78.9,1.5,1.5,0,1.5
4,2023-03-13T00:03:00,2.2,北,6.7,西南西,14.4,79.2,1,1.5,0,1.5
5,2023-03-13T00:04:00,2.2,北,6.7,西南西,14.4,79.6,1,1.5,0,1.5
6,2023-03-13T00:05:00,2.3,北北西,6.7,西南西,14.5,80.1,1,1.5,0,1.5
7,2023-03-13T00:06:00,2.3,北北西,6.7,西南西,14.6,80.2,0.5,1.5,0,1.5
8,2023-03-13T00:07:00,2.4,北北西,6.7,西南西,14.7,79.4,1,2,0.5,2
9,2023-03-13T00:08:00,2.4,北北西,6.7,西南西,14.6,78.7,0.5,2,0.5,2
10,2023-03-13T00:09:00,2.6,北北西,7,北,14.6,78.5,0.5,2,0.5,2
11,2023-03-13T00:10:00,2.7,北,7,北,14.6,78.5,0.5,2,0.5,2
12,2023-03-13T00:11:00,2.7,北,7,北,14.6,78.3,0.5,2,0.5,2
13,2023-03-13T00:12:00,2.9,北,7,北,14.6,78.5,0.5,2,0.5,2
14,2023-03-13T00:13:00,3.1,北北西,7,北,14.7,78.6,0.5,2,0.5,2
15,2023-03-13T00:14:00,3.2,北北西,7,北,14.9,78.6,0.5,2,0.5,2
16,2023-03-13T00:15:00,3.3,北北西,7,北,14.9,78.1,0.5,2,0.5,2
17,2023-03-13T00:16:00,3.2,北北西,7,北,14.9,77.1,0.5,2,0.5,2
18,2023-03-13T00:17:00,3.1,北北西,7,北,14.9,77,0,2,0.5,2
19,2023-03-13T00:18:00,3.1,北西,7,北,15,76.8,0,2,0.5,2
20,2023-03-13T00:19:00,2.8,北西,5.5,西,15,76.5,0,2,0.5,2
21,2023-03-13T00:20:00,2.9,北西,9.2,西北西,15,76.5,0,2,0.5,2
22,2023-03-13T00:21:00,3.1,北西,9.2,西北西,15.1,76.3,0,2,0.5,2
23,2023-03-13T00:22:00,3,西北西,9.2,西北西,15.1,75.9,0,2,0.5,2
24,2023-03-13T00:23:00,3,西北西,9.2,西北西,15.1,75.7,0,2,0.5,2
25,2023-03-13T00:24:00,3,西北西,9.2,西北西,15,75.9,0,2,0.5,2
26,2023-03-13T00:25:00,2.9,西北西,9.2,西北西,15,75.9,0,2,0.5,2
27,2023-03-13T00:26:00,2.8,西北西,9.2,西北西,15.1,76,0,2,0.5,2
28,2023-03-13T00:27:00,2.8,西北西,9.2,西北西,15.1,75.3,0,2,0.5,2
29,2023-03-13T00:28:00,3,北西,9.2,西北西,15,75.2,0,2,0.5,2
30,2023-03-13T00:29:00,3.2,北西,9.2,西北西,15,75.3,0,2,0.5,2
31,2023-03-13T00:30:00,3.1,北西,7.5,西,15,75.5,0,2,0.5,2
32,2023-03-13T00:31:00,3.1,北北西,5.5,西,15.1,75.5,0,2,0.5,2
33,2023-03-13T00:32:00,3,北北西,5.2,西,15.2,74.8,0,2,0.5,2
34,2023-03-13T00:33:00,3,北北西,5.1,北,15.3,74.8,0,2,0.5,2
35,2023-03-13T00:34:00,3,北北西,5.1,北,15.3,74.3,0,2,0.5,2
36,2023-03-13T00:35:00,3,北,5.1,北,15.3,73.7,0,2,0.5,2
37,2023-03-13T00:36:00,3.1,北,5.1,北,15.2,73.3,0,2,0.5,2
38,2023-03-13T00:37:00,3.1,北,5.1,北,15.1,73.8,0,2,0.5,2
39,2023-03-13T00:38:00,3,北北西,5.9,西,15.1,74.3,0,2,0.5,2
40,2023-03-13T00:39:00,3.1,北北西,6.5,西北西,15.2,74.6,0,2,0.5,2
41,2023-03-13T00:40:00,3,北西,6.5,西北西,15.3,74.3,0,2,0.5,2
42,2023-03-13T00:41:00,2.9,北西,6.5,西北西,15.5,73.1,0,2,0.5,2
43,2023-03-13T00:42:00,2.8,北西,6.5,西北西,15.6,71.6,0,2,0.5,2
44,2023-03-13T00:43:00,2.8,北西,6.5,西北西,15.7,70.2,0,2,0.5,2
45,2023-03-13T00:44:00,2.8,北西,6.5,西北西,15.7,69.4,0,2,0.5,2
46,2023-03-13T00:45:00,2.8,北西,6.5,西北西,15.7,68.9,0,2,0.5,2
47,2023-03-13T00:46:00,2.7,北西,6.5,西北西,15.7,68.9,0,2,0.5,2
48,2023-03-13T00:47:00,2.9,北西,6.5,西北西,15.6,68.7,0,2,0.5,2
49,2023-03-13T00:48:00,2.8,北北西,6.5,西北西,15.7,68.3,0,2,0.5,2
50,2023-03-13T00:49:00,2.6,北北東,6.4,東南東,15.7,67.6,0,2,0.5,2
51,2023-03-13T00:50:00,2.7,北北東,6.4,東南東,15.6,67.5,0,2,0.5,2
52,2023-03-13T00:51:00,2.9,北北東,7.4,北東,15.6,67.9,0,2,0.5,2
53,2023-03-13T00:52:00,3.2,北北東,8.2,北,15.7,68.7,0,2,0.5,2
54,2023-03-13T00:53:00,3.3,北北東,8.2,北,15.7,68.8,0,1.5,0.5,2
55,2023-03-13T00:54:00,3.4,北北東,8.2,北,15.6,68.7,0,1.5,0.5,2
56,2023-03-13T00:55:00,3.5,北北東,8.2,北,15.7,68.7,0,1.5,0.5,2
57,2023-03-13T00:56:00,3.7,北,8.2,北,15.8,68.8,0,1,0.5,2
58,2023-03-13T00:57:00,3.6,北,8.2,北,15.7,69,0,1,0.5,2
59,2023-03-13T00:58:00,3.7,北北西,8.2,北,15.7,69.4,0,0.5,0.5,2
60,2023-03-13T00:59:00,3.7,北北西,8.2,北,15.6,69.5,0,0.5,0.5,2
61,2023-03-13T01:00:00,3.7,北北西,8.2,北,15.5,70,0,0.5,0.5,2
62,2023-03-13T01:01:00,3.5,北,8.2,北,15.5,70.4,0,0.5,0.5,2
63,2023-03-13T01:02:00,3.2,北,6.8,北,15.5,70.1,0,0.5,0.5,2
64,2023-03-13T01:03:00,3,北,5.7,北西,15.6,69.7,0,0.5,0.5,2
65,2023-03-13T01:04:00,2.8,北,5.7,北西,15.6,69.4,0,0.5,0.5,2
66,2023-03-13T01:05:00,2.9,北,6.4,北北西,15.7,69.2,0,0.5,0.5,2
67,2023-03-13T01:06:00,2.8,北北東,6.4,北北西,15.7,69.4,0,0.5,0.5,2
68,2023-03-13T01:07:00,2.5,北東,6.4,北北西,15.6,69.2,0,0,0.5,2
69,2023-03-13T01:08:00,2.4,北東,6.4,北北西,15.6,69.1,0,0,0.5,2
70,2023-03-13T01:09:00,2.5,北北東,6.4,北北西,15.6,69.5,0,0,0.5,2
71,2023-03-13T01:10:00,2.3,北北東,6.4,北北西,15.8,69.4,0,0,0.5,2
72,2023-03-13T01:11:00,2.3,北北東,6.4,北北西,15.7,69,0,0,0.5,2
73,2023-03-13T01:12:00,2.5,北北東,6.4,北北西,15.7,69.1,0,0,0.5,2
74,2023-03-13T01:13:00,2.6,北,6.4,北北西,15.6,69,0,0,0.5,2
75,2023-03-13T01:14:00,2.6,北,6.4,北北西,15.7,69.1,0,0,0.5,2
76,2023-03-13T01:15:00,2.3,北,5.7,北北西,15.7,69.1,0,0,0.5,2
77,2023-03-13T01:16:00,2.5,北,6.4,北,15.6,69.1,0,0,0.5,2
78,2023-03-13T01:17:00,2.8,北,6.8,北東,15.7,69.1,0,0,0.5,2
79,2023-03-13T01:18:00,2.8,北,6.8,北東,15.6,69.2,0,0,0.5,2
80,2023-03-13T01:19:00,2.9,北北東,6.8,北東,15.6,69.5,0,0,0.5,2
81,2023-03-13T01:20:00,3,北北東,6.8,北東,15.6,69.6,0,0,0.5,2
82,2023-03-13T01:21:00,3.5,北北東,11.1,北北西,15.7,69.6,0,0,0.5,2
83,2023-03-13T01:22:00,3.9,北北東,11.4,西南西,15.6,70,0,0,0.5,2
84,2023-03-13T01:23:00,3.8,北北東,11.4,西南西,15.6,70.4,0,0,0.5,2
85,2023-03-13T01:24:00,3.7,北北東,11.4,西南西,15.6,70.7,0,0,0.5,2
86,2023-03-13T01:25:00,3.8,北,11.4,西南西,15.5,70.9,0,0,0.5,2
87,2023-03-13T01:26:00,3.7,北,11.4,西南西,15.4,71.4,0,0,0.5,2
88,2023-03-13T01:27:00,3.6,北,11.4,西南西,15.4,72,0,0,0.5,2
89,2023-03-13T01:28:00,3.6,北,11.4,西南西,15.4,72.4,0,0,0.5,2
90,2023-03-13T01:29:00,3.4,北,11.4,西南西,15.4,72.5,0,0,0.5,2
91,2023-03-13T01:30:00,3.3,北,11.4,西南西,15.3,72.5,0,0,0.5,2
92,2023-03-13T01:31:00,3.2,北,11.4,西南西,15.3,72.7,0,0,0.5,2
93,2023-03-13T01:32:00,3.1,北北東,9.9,南東,15.4,72.8,0,0,0.5,2
94,2023-03-13T01:33:00,3.4,北東,10.1,南東,15.5,72.5,0,0,0.5,2
95,2023-03-13T01:34:00,3.6,北東,10.1,南東,15.6,71.8,0,0,0.5,2
96,2023-03-13T01:35:00,3.7,東北東,10.1,南東,15.6,70.9,0,0,0.5,2
97,2023-03-13T01:36:00,3.7,東,10.1,南東,15.6,70.4,0,0,0.5,2
98,2023-03-13T01:37:00,3.6,東,10.7,南,15.6,70.4,0,0,0.5,2
99,2023-03-13T01:38:00,3.7,東,10.7,南,15.6,70.8,0,0,0.5,2
100,2023-03-13T01:39:00,3.6,東南東,10.7,南,15.6,71,0,0,0.5,2
101,2023-03-13T01:40:00,3.6,東南東,10.7,南,15.6,70.9,0,0,0.5,2
102,2023-03-13T01:41:00,3.7,東南東,10.7,南,15.6,70.9,0,0,0.5,2
103,2023-03-13T01:42:00,3.5,東南東,10.7,南,15.6,71.2,0,0,0.5,2
104,2023-03-13T01:43:00,3.6,東南東,10.7,南,15.6,71.3,0,0,0.5,2
105,2023-03-13T01:44:00,4.1,東南東,14.4,東南東,15.5,71.6,0,0,0.5,2
106,2023-03-13T01:45:00,4.7,東南東,14.4,東南東,15.6,71.7,0,0,0.5,2
107,2023-03-13T01:46:00,4.9,東南東,14.4,東南東,15.5,71.8,0,0,0.5,2
108,2023-03-13T01:47:00,5.2,東南東,14.4,東南東,15.4,72.2,0,0,0.5,2
109,2023-03-13T01:48:00,5.1,東南東,14.4,東南東,15.3,72.9,0,0,0.5,2
110,2023-03-13T01:49:00,5.4,東南東,14.4,東南東,15.3,73.5,0,0,0.5,2
111,2023-03-13T01:50:00,5.5,東南東,14.4,東南東,15.3,74.1,0,0,0.5,2
112,2023-03-13T01:51:00,5.4,東南東,14.4,東南東,15.2,74.3,0,0,0.5,2
113,2023-03-13T01:52:00,5.4,東南東,14.4,東南東,15.2,74.6,0,0,0.5,2
114,2023-03-13T01:53:00,5.5,東南東,14.4,東南東,15.2,74.7,0,0,0.5,2
115,2023-03-13T01:54:00,5.4,東南東,13.9,南東,15.3,74.9,0,0,0.5,2
116,2023-03-13T01:55:00,5.3,東南東,13.9,南東,15.3,74.9,0,0,0.5,2
117,2023-03-13T01:56:00,5.2,東南東,13.9,南東,15.4,74.4,0,0,0.5,2
118,2023-03-13T01:57:00,5.1,東南東,13.9,南東,15.4,74,0,0,0.5,2
119,2023-03-13T01:58:00,5.1,東南東,13.9,南東,15.3,73.7,0,0,0.5,2
120,2023-03-13T01:59:00,4.9,東南東,13.9,南東,15.3,73.9,0,0,0.5,2
121,2023-03-13T02:00:00,4.7,東南東,13.9,南東,15.2,74.4,0,0,0.5,2
122,2023-03-13T02:01:00,4.5,東南東,13.9,南東,15.3,74.6,0,0,0.5,2
123,2023-03-13T02:02:00,4.3,東南東,13.9,南東,15.2,74.5,0,0,0.5,2
124,2023-03-13T02:03:00,4.2,南東,13.9,南東,15.1,74.7,0.5,0.5,1,2.5
125,2023-03-13T02:04:00,4,南東,13.1,東南東,15,75.4,1.5,1.5,2,3.5
126,2023-03-13T02:05:00,3.6,南東,12.2,南南東,14.6,76.3,2,2,2.5,4
127,2023-03-13T02:06:00,3.6,南東,12.2,南南東,14.5,77.9,2,2,2.5,4
128,2023-03-13T02:07:00,3.9,南南東,12.2,南南東,14.5,79.1,2,2,2.5,4
129,2023-03-13T02:08:00,4.1,南南東,12.2,南南東,14.3,80.1,2,2,2.5,4
130,2023-03-13T02:09:00,4.1,南,12.2,南南東,14.2,80.7,2,2,2.5,4
131,2023-03-13T02:10:00,4.9,南,12.9,南西,14.2,81.4,2.5,2.5,3,4.5
132,2023-03-13T02:11:00,5.1,南,12.9,南西,14.1,82.2,2.5,2.5,3,4.5
133,2023-03-13T02:12:00,5.2,南南西,12.9,南西,14.1,82.8,2.5,2.5,3,4.5
134,2023-03-13T02:13:00,5.2,南南西,12.9,南西,14,83.4,2,2.5,3,4.5
135,2023-03-13T02:14:00,5.1,南南西,12.9,南西,14,83.8,1,2.5,3,4.5
136,2023-03-13T02:15:00,5.3,南西,12.9,南西,13.9,84.3,0.5,2.5,3,4.5
137,2023-03-13T02:16:00,5.3,南西,12.9,南西,13.9,84.7,0.5,2.5,3,4.5
138,2023-03-13T02:17:00,5.1,南西,12.9,南西,13.8,85,0.5,2.5,3,4.5
139,2023-03-13T02:18:00,4.8,南西,12.9,南西,13.8,85.5,1,3,3.5,5
140,2023-03-13T02:19:00,4.9,南西,12.9,南西,13.8,85.9,1,3,3.5,5
141,2023-03-13T02:20:00,4.4,南西,9,南南西,13.8,86,0.5,3,3.5,5
142,2023-03-13T02:21:00,4.6,南西,9.6,西南西,13.8,86.3,0.5,3,3.5,5
143,2023-03-13T02:22:00,4.6,南西,9.6,西南西,13.9,86.6,0.5,3,3.5,5
144,2023-03-13T02:23:00,4.3,南西,9.6,西南西,13.9,86.7,0.5,3,3.5,5
145,2023-03-13T02:24:00,4,南西,9.6,西南西,13.8,86.5,0.5,3,3.5,5
146,2023-03-13T02:25:00,3.7,南西,9.6,西南西,13.8,86.7,0.5,3,3.5,5
147,2023-03-13T02:26:00,3.7,南西,9.6,西南西,13.8,86.6,0.5,3,3.5,5
148,2023-03-13T02:27:00,3.7,南西,9.6,西南西,13.8,86.7,0.5,3,3.5,5
149,2023-03-13T02:28:00,3.7,南西,9.6,西南西,13.7,86.6,0.5,3.5,4,5.5
150,2023-03-13T02:29:00,3.6,南西,9.6,西南西,13.6,86.6,0.5,3.5,4,5.5
151,2023-03-13T02:30:00,3.5,南西,9.6,西南西,13.6,86.9,0.5,3.5,4,5.5
152,2023-03-13T02:31:00,3.2,南西,7.4,西南西,13.6,87.1,0.5,3.5,4,5.5
153,2023-03-13T02:32:00,2.9,南西,7.2,西南西,13.6,87.3,0.5,3.5,4,5.5
154,2023-03-13T02:33:00,3.2,南西,7.2,西南西,13.6,87.4,0.5,3.5,4,5.5
155,2023-03-13T02:34:00,3.4,南南西,7.2,西南西,13.6,87.6,0.5,3.5,4,5.5
156,2023-03-13T02:35:00,3.5,南南西,7.2,西南西,13.6,87.5,0.5,3.5,4,5.5
157,2023-03-13T02:36:00,3.6,南南西,7.1,南南西,13.5,87.6,0.5,3.5,4,5.5
158,2023-03-13T02:37:00,3.5,南南西,7.1,南南西,13.5,87.6,0.5,3.5,4,5.5
159,2023-03-13T02:38:00,3.6,南南西,7.1,南南西,13.5,87.7,0.5,4,4.5,6
160,2023-03-13T02:39:00,3.8,南南西,7.1,南南西,13.5,87.7,0.5,4,4.5,6
161,2023-03-13T02:40:00,3.9,南西,7.2,西南西,13.5,87.9,0.5,4,4.5,6
162,2023-03-13T02:41:00,4,南西,7.2,西南西,13.5,88.1,0.5,4,4.5,6
163,2023-03-13T02:42:00,4.2,南西,7.2,西南西,13.4,88,0.5,4,4.5,6
164,2023-03-13T02:43:00,4.4,南西,9,南西,13.5,88,0.5,4,4.5,6
165,2023-03-13T02:44:00,4.7,南西,9.6,西南西,13.5,88.1,1,4.5,5,6.5
166,2023-03-13T02:45:00,5,南西,9.6,西南西,13.5,88.2,1,4.5,5,6.5
167,2023-03-13T02:46:00,5.2,南西,12.4,西南西,13.6,88.3,1,4.5,5,6.5
168,2023-03-13T02:47:00,5.4,西南西,12.4,西南西,13.5,88.4,1,4.5,5,6.5
169,2023-03-13T02:48:00,5.5,西南西,12.4,西南西,13.5,88.2,0.5,4.5,5,6.5
170,2023-03-13T02:49:00,5.9,西南西,16.1,西,13.4,88,1,5,5.5,7
171,2023-03-13T02:50:00,6.2,西南西,16.1,西,13.2,86.9,1,5,5.5,7
172,2023-03-13T02:51:00,6.7,西南西,16.1,西,12.9,85.4,1,5,5.5,7
173,2023-03-13T02:52:00,7.6,西南西,19.1,西南西,12.6,84,1,5,5.5,7
174,2023-03-13T02:53:00,8.1,西南西,19.1,西南西,12.4,83.7,1,5,5.5,7
175,2023-03-13T02:54:00,8.2,西南西,19.1,西南西,12.4,83,0.5,5,5.5,7
176,2023-03-13T02:55:00,8.5,西南西,19.1,西南西,12.3,81.9,1,5.5,6,7.5
177,2023-03-13T02:56:00,8.6,西南西,19.1,西南西,12.2,80.3,1,5.5,6,7.5
178,2023-03-13T02:57:00,8.8,西南西,19.1,西南西,12.1,79.5,1,5.5,6,7.5
179,2023-03-13T02:58:00,9.1,西南西,19.1,西南西,12.1,78.6,1,5.5,6,7.5
180,2023-03-13T02:59:00,8.8,西南西,19.1,西南西,12,78,0.5,5.5,6,7.5
181,2023-03-13T03:00:00,8.7,西南西,19.1,西南西,11.9,77.6,0.5,5.5,6,7.5
182,2023-03-13T03:01:00,8.3,西南西,19.1,西南西,11.8,77.7,0.5,5.5,6,7.5
183,2023-03-13T03:02:00,7.7,西南西,16,西南西,11.8,77.6,0.5,5.5,6,7.5
184,2023-03-13T03:03:00,7.2,西南西,15.4,西南西,11.8,77.8,0.5,5,6,7.5
185,2023-03-13T03:04:00,7.1,西南西,15.4,西南西,11.7,77.8,0.5,4,6,7.5
186,2023-03-13T03:05:00,6.6,南西,12.5,南西,11.6,77.6,0,3.5,6,7.5
187,2023-03-13T03:06:00,6.6,南西,12.5,南西,11.7,77.6,0,3.5,6,7.5
188,2023-03-13T03:07:00,6.2,南西,12.5,南西,11.7,77.7,0,3.5,6,7.5
189,2023-03-13T03:08:00,5.7,南西,12.5,南西,11.6,77.5,0,3.5,6,7.5
190,2023-03-13T03:09:00,5.5,南西,12.5,南西,11.7,77.5,0,3.5,6,7.5
191,2023-03-13T03:10:00,5.3,南西,12.5,南西,11.5,77.4,0,3,6,7.5
192,2023-03-13T03:11:00,5.2,南西,12.5,南西,11.6,77.5,0,3,6,7.5
193,2023-03-13T03:12:00,5.1,南西,9.3,南西,11.5,77.7,0,3,6,7.5
194,2023-03-13T03:13:00,5,南西,9.3,南西,11.5,77.6,0,3,6,7.5
195,2023-03-13T03:14:00,4.9,南西,9.3,南西,11.3,77.9,0,3,6,7.5
196,2023-03-13T03:15:00,4.9,南西,9.3,南西,11.2,78.4,0,3,6,7.5
197,2023-03-13T03:16:00,4.8,南西,10.1,南南西,11.1,79.2,0,3,6,7.5
198,2023-03-13T03:17:00,5.1,南西,10.1,南南西,11.1,79.6,0,3,6,7.5
199,2023-03-13T03:18:00,5.2,南西,10.1,南南西,11,80,0,2.5,6,7.5
200,2023-03-13T03:19:00,5.3,南南西,10.1,南南西,11,80.4,0,2.5,6,7.5
201,2023-03-13T03:20:00,5.1,南南西,10.1,南南西,10.9,80.6,0,2.5,6,7.5
202,2023-03-13T03:21:00,4.8,南南西,10.1,南南西,10.9,81,0,2.5,6,7.5
203,2023-03-13T03:22:00,4.5,南南西,10.1,南南西,10.8,81.2,0,2.5,6,7.5
204,2023-03-13T03:23:00,4.4,南南西,10.1,南南西,10.8,81.4,0,2.5,6,7.5
205,2023-03-13T03:24:00,4.4,南南西,10.1,南南西,10.8,81.6,0,2.5,6,7.5
206,2023-03-13T03:25:00,4.3,南南西,10.1,南南西,10.8,81.7,0,2.5,6,7.5
207,2023-03-13T03:26:00,4.2,南南西,9.4,西南西,10.9,81.4,0,2.5,6,7.5
208,2023-03-13T03:27:00,4,南南西,9.4,西南西,11,81.1,0,2.5,6,7.5
209,2023-03-13T03:28:00,4.1,南南西,9.4,西南西,11,80.7,0,2,6,7.5
210,2023-03-13T03:29:00,4,南西,9.4,西南西,10.9,79.4,0,2,6,7.5
211,2023-03-13T03:30:00,4.3,南西,9.4,西南西,10.9,79,0,2,6,7.5
212,2023-03-13T03:31:00,4.5,南西,9.4,西南西,11,79,0,2,6,7.5
213,2023-03-13T03:32:00,4.6,南西,9.4,西南西,10.9,78.6,0,2,6,7.5
214,2023-03-13T03:33:00,4.5,南西,9.4,西南西,10.7,78.3,0,2,6,7.5
215,2023-03-13T03:34:00,4.2,南西,9.4,西南西,10.7,78.9,0,2,6,7.5
216,2023-03-13T03:35:00,4.1,南西,9.4,西南西,10.6,79.8,0,2,6,7.5
217,2023-03-13T03:36:00,3.8,南西,8.4,西南西,10.6,80.4,0,2,6,7.5
218,2023-03-13T03:37:00,3.5,南南西,8.4,西南西,10.5,80.4,0,2,6,7.5
219,2023-03-13T03:38:00,3.2,南西,8.4,西南西,10.5,81.2,0,1.5,6,7.5
220,2023-03-13T03:39:00,3.2,南南西,8.4,西南西,10.5,81.2,0,1.5,6,7.5
221,2023-03-13T03:40:00,2.8,南南西,7.4,西,10.6,81,0,1.5,6,7.5
222,2023-03-13T03:41:00,2.5,南南西,6.1,西南西,10.7,80.7,0,1.5,6,7.5
223,2023-03-13T03:42:00,2.5,南南西,5.6,南南西,10.6,80.2,0,1.5,6,7.5
224,2023-03-13T03:43:00,2.4,南南西,5.6,南南西,10.6,79.8,0,1.5,6,7.5
225,2023-03-13T03:44:00,2.3,南南西,5.6,南南西,10.6,80.1,0,1,6,7.5
226,2023-03-13T03:45:00,2.3,南南西,5.6,南南西,10.5,80.1,0,1,6,7.5
227,2023-03-13T03:46:00,2.3,南西,4.2,南西,10.4,80.3,0,1,6,7.5
228,2023-03-13T03:47:00,2.3,南南西,4.2,南西,10.3,80.6,0,1,6,7.5
229,2023-03-13T03:48:00,2.2,南南西,4.2,南西,10.3,81.4,0,1,6,7.5
230,2023-03-13T03:49:00,2.1,南南西,4.2,南西,10.3,82,0,0.5,6,7.5
231,2023-03-13T03:50:00,2,南南西,4.2,南西,10.2,82.6,0,0.5,6,7.5
232,2023-03-13T03:51:00,1.9,南,4,南西,10,82.4,0,0.5,6,7.5
233,2023-03-13T03:52:00,1.7,南,3.6,南南西,10.1,83.4,0,0.5,6,7.5
234,2023-03-13T03:53:00,1.7,南,3.6,南南西,10.1,83.8,0,0.5,6,7.5
235,2023-03-13T03:54:00,1.8,南,3.6,南南西,10.1,84.1,0,0.5,6,7.5
236,2023-03-13T03:55:00,1.9,南,4.1,南,10,83.8,0,0,6,7.5
237,2023-03-13T03:56:00,1.9,南,4.1,南,10,83.9,0,0,6,7.5
238,2023-03-13T03:57:00,1.9,南,4.1,南,10,84.2,0,0,6,7.5
239,2023-03-13T03:58:00,1.9,南,4.1,南,10,84.6,0,0,6,7.5
240,2023-03-13T03:59:00,2,南,4.1,南,10,84.4,0,0,6,7.5
241,2023-03-13T04:00:00,2.1,南,4.1,南,9.9,84.4,0,0,6,7.5
242,2023-03-13T04:01:00,2.1,南,4.1,南,9.8,84.7,0,0,6,7.5
243,2023-03-13T04:02:00,2.2,南,4.1,南,9.8,84.6,0,0,6,7.5
244,2023-03-13T04:03:00,2.1,南,4.1,南,9.7,84.8,0,0,6,7.5
245,2023-03-13T04:04:00,2.1,南,4.1,南,9.7,85.2,0,0,6,7.5
246,2023-03-13T04:05:00,2.1,南,4.5,南,9.8,85.5,0,0,6,7.5
247,2023-03-13T04:06:00,2,南南東,4.5,南,9.8,85.4,0,0,6,7.5
248,2023-03-13T04:07:00,2.1,南南東,4.5,南,9.8,85.4,0,0,6,7.5
249,2023-03-13T04:08:00,2.1,南南東,4.5,南,9.8,85.8,0,0,6,7.5
250,2023-03-13T04:09:00,2,南南東,4.5,南,9.8,85.7,0,0,6,7.5
251,2023-03-13T04:10:00,1.9,南南東,4.5,南,9.8,85.4,0,0,6,7.5
252,2023-03-13T04:11:00,1.9,南南東,4.5,南,9.8,85.7,0,0,6,7.5
253,2023-03-13T04:12:00,1.8,南南東,4.5,南,9.7,85.1,0,0,6,7.5
254,2023-03-13T04:13:00,1.9,南南東,4.5,南,9.6,84.9,0,0,6,7.5
255,2023-03-13T04:14:00,1.8,南南東,4.5,南,9.6,85.1,0,0,6,7.5
256,2023-03-13T04:15:00,1.7,南南東,4.3,南,9.5,85.3,0,0,6,7.5
257,2023-03-13T04:16:00,1.7,南南東,4,南,9.5,85.6,0,0,6,7.5
258,2023-03-13T04:17:00,1.6,南南東,3.5,南南東,9.5,85.5,0,0,6,7.5
259,2023-03-13T04:18:00,1.6,南南東,3.5,南南東,9.6,86.6,0,0,6,7.5
260,2023-03-13T04:19:00,1.6,南南東,3.5,南南東,9.5,86.2,0,0,6,7.5
261,2023-03-13T04:20:00,1.7,南南東,3.5,南南東,9.4,85.8,0,0,6,7.5
262,2023-03-13T04:21:00,1.7,南南東,3.5,南南東,9.4,86.1,0,0,6,7.5
263,2023-03-13T04:22:00,1.6,南南東,3.5,南南東,9.4,86.6,0,0,6,7.5
264,2023-03-13T04:23:00,1.5,南南東,3.5,南南東,9.4,86.8,0,0,6,7.5
265,2023-03-13T04:24:00,1.5,南南東,3.5,南南東,9.4,87,0,0,6,7.5
266,2023-03-13T04:25:00,1.3,南南東,3.3,南,9.5,87.7,0,0,6,7.5
267,2023-03-13T04:26:00,1.2,南南東,3.3,南,9.5,87.5,0.5,0.5,6.5,8
268,2023-03-13T04:27:00,1.1,南南東,3.3,南,9.4,87.2,0.5,0.5,6.5,8
269,2023-03-13T04:28:00,1.2,南南東,3.2,東南東,9.3,87.4,0.5,0.5,6.5,8
270,2023-03-13T04:29:00,1.1,南,2.7,南南東,9.2,87.2,0.5,0.5,6.5,8
271,2023-03-13T04:30:00,1,南南東,2.5,南,9.2,88.1,0.5,0.5,6.5,8
272,2023-03-13T04:31:00,1,南南東,2.9,南南東,9.2,88.3,0.5,0.5,6.5,8
273,2023-03-13T04:32:00,1.1,南,2.9,南南東,9.2,88.4,0.5,0.5,6.5,8
274,2023-03-13T04:33:00,1,南,2.9,南南東,9.2,88.7,0.5,0.5,6.5,8
275,2023-03-13T04:34:00,1,南,2.9,南南東,9.2,88.9,0.5,0.5,6.5,8
276,2023-03-13T04:35:00,1.1,南,2.9,南南東,9,88.7,0.5,0.5,6.5,8
277,2023-03-13T04:36:00,1.1,南,2.9,南南東,9.1,89,0,0.5,6.5,8
278,2023-03-13T04:37:00,1.2,南,2.9,南南東,9.1,89.4,0,0.5,6.5,8
279,2023-03-13T04:38:00,1.2,南,2.9,南南東,9.3,90.5,0,0.5,6.5,8
280,2023-03-13T04:39:00,1.2,南,2.9,南南東,9.3,90.4,0,0.5,6.5,8
281,2023-03-13T04:40:00,1.3,南,2.9,南南東,9.2,89.9,0,0.5,6.5,8
282,2023-03-13T04:41:00,1.2,南,2.8,南,9.1,89.4,0,0.5,6.5,8
283,2023-03-13T04:42:00,1.2,南,2.8,南,9,89.7,0,0.5,6.5,8
284,2023-03-13T04:43:00,1.2,南南西,2.8,南,9,89.6,0,0.5,6.5,8
285,2023-03-13T04:44:00,1.1,南南西,2.8,南,9,89.6,0,0.5,6.5,8
286,2023-03-13T04:45:00,1.1,南南西,2.8,南,9,90,0,0.5,6.5,8
287,2023-03-13T04:46:00,1,南南西,2.8,南,9,90.3,0,0.5,6.5,8
288,2023-03-13T04:47:00,0.9,南南西,2.8,南,9.1,90.7,0,0.5,6.5,8
289,2023-03-13T04:48:00,0.8,南南西,2.8,南,9.1,90.4,0,0.5,6.5,8
290,2023-03-13T04:49:00,0.7,南南西,2.1,南南西,9,90.1,0,0.5,6.5,8
291,2023-03-13T04:50:00,0.7,南南西,2.3,南南東,9,90.1,0,0.5,6.5,8
292,2023-03-13T04:51:00,0.8,南南西,2.3,南南東,9,90.5,0,0.5,6.5,8
293,2023-03-13T04:52:00,0.8,南南西,2.3,南南東,9,90.5,0,0.5,6.5,8
294,2023-03-13T04:53:00,0.9,南南西,2.3,南南東,9,90.3,0,0.5,6.5,8
295,2023-03-13T04:54:00,1,南南西,2.3,南南東,9,90.6,0,0.5,6.5,8
296,2023-03-13T04:55:00,1.1,南南西,2.3,南南東,8.9,90.4,0,0.5,6.5,8
297,2023-03-13T04:56:00,1.2,南南西,2.3,南南東,9,90.3,0,0.5,6.5,8
298,2023-03-13T04:57:00,1.3,南南西,3.7,南南西,9,90.3,0,0.5,6.5,8
299,2023-03-13T04:58:00,1.4,南南西,3.7,南南西,9,89.9,0,0.5,6.5,8
300,2023-03-13T04:59:00,1.6,南南西,3.7,南南西,9,90.1,0,0.5,6.5,8
301,2023-03-13T05:00:00,1.7,南南西,4.1,南,9.1,90.5,0,0.5,6.5,8
302,2023-03-13T05:01:00,1.8,南南西,4.2,南,9.1,89.9,0,0.5,6.5,8
303,2023-03-13T05:02:00,1.9,南南西,4.2,南,9.1,89.9,0,0.5,6.5,8
304,2023-03-13T05:03:00,2,南南西,4.7,南南東,9.1,89.6,0,0.5,6.5,8
305,2023-03-13T05:04:00,2,南南西,4.7,南南東,9.2,89.3,0,0.5,6.5,8
306,2023-03-13T05:05:00,2.1,南,4.7,南南東,9.2,89,0,0.5,6.5,8
307,2023-03-13T05:06:00,2.4,南,5.4,南南西,9,88.2,0,0.5,6.5,8
308,2023-03-13T05:07:00,,"",,"",,,,,,
309,2023-03-13T05:08:00,,"",,"",,,,,,
310,2023-03-13T05:09:00,2.8,南,5.4,南南西,9.1,87.9,0,0.5,6.5,8
311,2023-03-13T05:10:00,2.9,南,5.4,南南西,9.2,87.5,0,0.5,6.5,8
312,2023-03-13T05:11:00,2.7,南,5.4,南南西,9.2,87.4,0,0.5,6.5,8
313,2023-03-13T05:12:00,2.7,南,5.4,南南西,9.2,87,0,0.5,6.5,8
314,2023-03-13T05:13:00,2.7,南,5.4,南南西,9.2,86.4,0,0.5,6.5,8
315,2023-03-13T05:14:00,2.9,南南西,5.4,南南西,9.2,86.1,0,0.5,6.5,8
316,2023-03-13T05:15:00,3.1,南南西,5.6,南南西,9.1,85.7,0,0.5,6.5,8
317,2023-03-13T05:16:00,3,南南西,5.6,南南西,9.2,85.6,0,0.5,6.5,8
318,2023-03-13T05:17:00,2.8,南南西,5.6,南南西,9.1,85.4,0,0.5,6.5,8
319,2023-03-13T05:18:00,2.7,南南西,5.6,南南西,9.2,84.9,0,0.5,6.5,8
320,2023-03-13T05:19:00,2.6,南南西,5.6,南南西,9.2,85,0,0.5,6.5,8
321,2023-03-13T05:20:00,2.6,南,5.6,南南西,9.2,84.7,0,0.5,6.5,8
322,2023-03-13T05:21:00,2.8,南,6.1,南,9.3,84.4,0,0.5,6.5,8
323,2023-03-13T05:22:00,3,南南西,6.4,南,9.2,84.3,0,0.5,6.5,8
324,2023-03-13T05:23:00,3.2,南南西,6.4,南,9.2,83.9,0,0.5,6.5,8
325,2023-03-13T05:24:00,3.3,南南西,6.4,南,9.1,83.5,0,0.5,6.5,8
326,2023-03-13T05:25:00,3.3,南南西,8,南南西,9.2,83.6,0,0.5,6.5,8
327,2023-03-13T05:26:00,3.6,南南西,8.2,南西,9.3,83.3,0,0,6.5,8
328,2023-03-13T05:27:00,3.8,南南西,8.2,南西,9.3,83.3,0,0,6.5,8
329,2023-03-13T05:28:00,3.9,南南西,8.2,南西,9.3,82.5,0,0,6.5,8
330,2023-03-13T05:29:00,4.1,南南西,8.2,南西,9.3,82,0,0,6.5,8
331,2023-03-13T05:30:00,4.1,南南西,8.2,南西,9.3,81.6,0,0,6.5,8
332,2023-03-13T05:31:00,4.2,南南西,8.2,南西,9.3,81.2,0,0,6.5,8
333,2023-03-13T05:32:00,4.2,南南西,8.2,南西,9.2,81.1,0,0,6.5,8
334,2023-03-13T05:33:00,4.3,南南西,8.2,南西,9.2,81,0,0,6.5,8
335,2023-03-13T05:34:00,4.2,南南西,8.2,南西,9.3,81.1,0,0,6.5,8
336,2023-03-13T05:35:00,4,南南西,8.2,南西,9.3,81,0,0,6.5,8
337,2023-03-13T05:36:00,3.9,南南西,9,南南西,9.3,80.5,0,0,6.5,8
338,2023-03-13T05:37:00,3.9,南南西,9,南南西,9.3,80.4,0,0,6.5,8
339,2023-03-13T05:38:00,4.1,南南西,9,南南西,9.3,79.8,0,0,6.5,8
340,2023-03-13T05:39:00,4.2,南南西,9,南南西,9.3,79.8,0,0,6.5,8
341,2023-03-13T05:40:00,4.2,南南西,9,南南西,9.4,79.7,0,0,6.5,8
342,2023-03-13T05:41:00,4.1,南南西,9,南南西,9.3,79.4,0,0,6.5,8
343,2023-03-13T05:42:00,4.2,南南西,9,南南西,9.3,79.7,0,0,6.5,8
344,2023-03-13T05:43:00,4.1,南南西,9,南南西,9.3,80,0,0,6.5,8
345,2023-03-13T05:44:00,4.1,南南西,9,南南西,9.2,80.3,0,0,6.5,8
346,2023-03-13T05:45:00,4.3,南南西,9,南南西,9.2,80.2,0,0,6.5,8
347,2023-03-13T05:46:00,4.2,南南西,8.2,南南西,9.2,80.5,0,0,6.5,8
348,2023-03-13T05:47:00,4.1,南,8.2,南南西,9.3,80.5,0,0,6.5,8
349,2023-03-13T05:48:00,3.8,南,6.9,南南西,9.2,80.5,0,0,6.5,8
350,2023-03-13T05:49:00,3.6,南,6.9,南南西,9.2,80.1,0,0,6.5,8
351,2023-03-13T05:50:00,3.5,南,6.9,南南西,9.2,80.4,0,0,6.5,8
352,2023-03-13T05:51:00,3.6,南南西,6.9,南南西,9.3,80.2,0,0,6.5,8
353,2023-03-13T05:52:00,3.5,南南西,6.9,南南西,9.3,80.2,0,0,6.5,8
354,2023-03-13T05:53:00,3.6,南南西,6.9,南南西,9.3,80,0,0,6.5,8
355,2023-03-13T05:54:00,3.7,南南西,6.9,南南西,9.3,79.7,0,0,6.5,8
356,2023-03-13T05:55:00,3.6,南南西,6.1,南,9.3,79.7,0,0,6.5,8
357,2023-03-13T05:56:00,3.4,南南西,6.1,南,9.3,79.7,0,0,6.5,8
358,2023-03-13T05:57:00,3.4,南南西,6.1,南,9.3,79.4,0,0,6.5,8
359,2023-03-13T05:58:00,3.3,南南西,6.1,南,9.2,79.5,0,0,6.5,8
360,2023-03-13T05:59:00,3.3,南,6.1,南,9.2,80.1,0,0,6.5,8
361,2023-03-13T06:00:00,3.3,南,6.1,南,9.3,80.6,0,0,6.5,8
362,2023-03-13T06:01:00,3.2,南,6.1,南,9.3,80.5,0,0,6.5,8
363,2023-03-13T06:02:00,3.2,南,6.1,南,9.2,80.4,0,0,6.5,8
364,2023-03-13T06:03:00,2.9,南,6,南南西,9.2,80.5,0,0,6.5,8
365,2023-03-13T06:04:00,2.8,南,5.9,南南西,9.1,80.2,0,0,6.5,8
366,2023-03-13T06:05:00,2.6,南,5.4,南南西,9,80.5,0,0,6.5,8
367,2023-03-13T06:06:00,2.8,南南西,5.4,南南西,9.1,81.1,0,0,6.5,8
368,2023-03-13T06:07:00,2.8,南南西,6.6,南南西,9.2,81.5,0,0,6.5,8
369,2023-03-13T06:08:00,2.8,南,6.6,南南西,9.2,81.8,0,0,6.5,8
370,2023-03-13T06:09:00,2.7,南,6.6,南南西,9.2,81.7,0,0,6.5,8
371,2023-03-13T06:10:00,2.5,南,6.6,南南西,9.2,81.8,0,0,6.5,8
372,2023-03-13T06:11:00,2.4,南,6.6,南南西,9.1,82,0,0,6.5,8
373,2023-03-13T06:12:00,2.3,南,6.6,南南西,9.1,82.1,0,0,6.5,8
374,2023-03-13T06:13:00,2.2,南,6.6,南南西,9,82.6,0,0,6.5,8
375,2023-03-13T06:14:00,2.2,南,6.6,南南西,9,82.7,0,0,6.5,8
376,2023-03-13T06:15:00,2.1,南,6.6,南南西,9.1,83.6,0,0,6.5,8
377,2023-03-13T06:16:00,2,南,6.6,南南西,9.2,84.2,0,0,6.5,8
378,2023-03-13T06:17:00,2,南,4.9,南南西,9.1,83.4,0,0,6.5,8
379,2023-03-13T06:18:00,2.2,南,5.8,南南東,9,83.7,0,0,6.5,8
380,2023-03-13T06:19:00,2.4,南,5.8,南南東,9.1,83.4,0,0,6.5,8
381,2023-03-13T06:20:00,2.5,南,5.8,南南東,9.1,83.7,0,0,6.5,8
382,2023-03-13T06:21:00,2.6,南,5.8,南南東,9.2,83.8,0,0,6.5,8
383,2023-03-13T06:22:00,2.6,南,5.8,南南東,9.1,83.6,0,0,6.5,8
384,2023-03-13T06:23:00,2.6,南,5.8,南南東,9.1,83.3,0,0,6.5,8
385,2023-03-13T06:24:00,2.5,南,5.8,南南東,9.1,83.4,0,0,6.5,8
386,2023-03-13T06:25:00,2.5,南,5.8,南南東,9.1,83.3,0,0,6.5,8
387,2023-03-13T06:26:00,2.4,南,5.8,南南東,9,83.6,0,0,6.5,8
388,2023-03-13T06:27:00,2.4,南,5.8,南南東,9,83.7,0,0,6.5,8
389,2023-03-13T06:28:00,2.4,南,5.5,南,9,83.6,0,0,6.5,8
390,2023-03-13T06:29:00,2.2,南,5.5,南,9.1,84.1,0,0,6.5,8
391,2023-03-13T06:30:00,2.1,南,5.5,南,9,84.1,0,0,6.5,8
392,2023-03-13T06:31:00,2.2,南,5.5,南,9,84.1,0,0,6.5,8
393,2023-03-13T06:32:00,2.2,南,5.9,南,9.1,84.7,0,0,6.5,8
394,2023-03-13T06:33:00,2.3,南,5.9,南,9.1,84.4,0,0,6.5,8
395,2023-03-13T06:34:00,2.4,南,5.9,南,9.1,84.2,0,0,6.5,8
396,2023-03-13T06:35:00,2.3,南,5.9,南,9.1,84.3,0,0,6.5,8
397,2023-03-13T06:36:00,2.3,南,5.9,南,9.1,84.2,0,0,6.5,8
398,2023-03-13T06:37:00,2.2,南,5.9,南,9,84,0,0,6.5,8
399,2023-03-13T06:38:00,2.1,南,5.9,南,9,84.2,0,0,6.5,8
400,2023-03-13T06:39:00,2.1,南,5.9,南,9.1,84.3,0,0,6.5,8
401,2023-03-13T06:40:00,2.1,南,5.9,南,9.1,84.3,0,0,6.5,8
402,2023-03-13T06:41:00,2.1,南,5.9,南,9.1,84.3,0,0,6.5,8
403,2023-03-13T06:42:00,2,南,5.5,南,9,84.2,0,0,6.5,8
404,2023-03-13T06:43:00,1.9,南,4.6,南,9.1,84.4,0,0,6.5,8
405,2023-03-13T06:44:00,1.8,南,4.6,南,9,84,0,0,6.5,8
406,2023-03-13T06:45:00,1.9,南,4.6,南,9,83.9,0,0,6.5,8
407,2023-03-13T06:46:00,1.8,南,4.6,南,9.1,84.3,0,0,6.5,8
408,2023-03-13T06:47:00,1.7,南,4.6,南,9.1,84.7,0,0,6.5,8
409,2023-03-13T06:48:00,1.7,南,4.6,南,9.1,84.3,0,0,6.5,8
410,2023-03-13T06:49:00,1.8,南,4.6,南,9.1,84.2,0,0,6.5,8